GEESAT 3-05

导读

GEESAT 3-05是中国吉利未来星座(Geesat)的第三批次卫星,于北京时间2024年9月5日08:00发射入轨,该星座由吉利控股集团旗下时空道宇主导建设运营。作为低轨商业卫星,它搭载遥感载荷,将为自动驾驶、智慧城市、农业监测等领域提供天基数据支撑,助力吉利未来出行生态构建,也为全球商业卫星应用提供定制化服务,推动中国商业航天产业发展。

基本信息
目录编号:
61015
目录名称:
GEESAT 3-05
国际标识:
2024-159E
轨道中心:
EARTH
卫星名称:
GEESAT 3-05
卫星全名:
GEESAT 3-05
卫星状态:
在轨 (已飞行730 天)
发射日期:
2024-09-05 UTC
国别 :
中国 (CN)
星等 :
--
轨道信息
数据来源 国际轨道数据 AOE轨道数据
星历时间 2026-09-05T11:00:01+0800
16小时前
查看轨道信息
2026-09-02T12:00:00+0800
3天前
查看轨道信息
半长轴 6993.37km 6993.37km
偏心率 0.0012633 0.0012785
轨道倾角 50.003° 50.002°
近地点辐角 3.405° 350.367°
升交点赤经 72.499° 86.222°
平近点角 356.697° 28.709°
近地点 606.398km 606.291km
远地点 624.068km 624.175km
周期 97.004分钟 97.004分钟
每日圈数 14.844754 14.844756
详细信息
使用方式:
暂无
2D轨道图
3D轨道图
轨道高度分析图
轨道倾角分析图
轨道综合分析图
查看轨道综合分析图
交会数据列表
事件ID 空间交会对象 最接近时刻(TCA) 交会距离 交会风险概率(CRP) 交会风险指数(CRI) 操作
CDM_260906-071806-101506-597023
2026-09-06T
07:18:53+0000
2.562 km
极远距离
1.461768E-6 低风险 0.38
CDM_260907-150802-832506-101522
2026-09-07T
15:08:23+0000
2.767 km
极远距离
1.251487E-6 低风险 0.37